Back to catalog

CZ-6A DEB

AliveSSO
NORAD 54915·DEBRIS·🇨🇳 China

Launched Nov 11, 2022 from Taiyuan Satellite Launch Center

Loading…

Next Passes (next 24 hours)

TLE

FreshSource: Space-Track

Epoch: Sep 14, 2026, 10:03 UTC

1 54915U 22151RC  26257.41894457  .00000382  00000-0  24651-3 0  9993
2 54915  98.8563 246.3250 0063273  96.7080 264.1295 14.07749523196566

Track CZ-6A DEB in real time with AllMySat

Download on the App Store